Kenai, AK

5:36 PM AKST on December 15, 2019 (GMT -0900)
Kenai Municipal

Weather History for PAEN - October, 2019

Change the Weather History Date:

Sunday, October 13, 2019

  Actual Average Record
Temperature  
Mean Temperature 34 °F -  
Max Temperature 43 °F 43 °F 59 °F (1969)
Min Temperature 24 °F 30 °F 12 °F (1957)
Degree Days  
Heating Degree Days 32    
Moisture  
Dew Point 24 °F    
Average Humidity 72    
Maximum Humidity 88    
Minimum Humidity 47    
Precipitation  
Precipitation 0.00 in - - ()
Sea Level Pressure  
Sea Level Pressure 30.02 in    
Wind  
Wind Speed 7 mph (NNE)    
Max Wind Speed 13 mph    
Max Gust Speed -    
Visibility 10 miles    
Events      
Averages and records for this station are not official NWS values.
T = Trace of Precipitation, MM = Missing Value Source: NWS Daily Summary

Daily Weather History Graph

Daily Weather History Graph

Search for Another Location

Airport or City:

Astronomy

Oct. 13, 2019 Rise Set
Actual Time 8:40 AM AKDT 7:00 PM AKDT
Civil Twilight 7:57 AM AKDT 7:43 PM AKDT
Nautical Twilight 7:08 AM AKDT 8:32 PM AKDT
Astronomical Twilight 6:18 AM AKDT 9:21 PM AKDT
Moon 7:38 PM AKDT (10/13) 8:05 AM AKDT (10/13)
Length of Visible Light 11h 45m
Length of Day
10h 19m
Full, 100% of the Moon is Illuminated
Oct 13
Full
Oct 13
Full
Oct 21
Last Quarter
Oct 27
New
Nov 4
First Quarter

Hourly Weather History & Observations

Time (AKDT) Temp. Windchill Dew Point Humidity Pressure Visibility Wind Dir Wind Speed Gust Speed Precip Events Conditions
12:53 AM 28.9 °F 25.2 °F 21.9 °F 75% 30.10 in 10.0 mi NNE 3.5 mph - N/A   Clear
1:53 AM 30.9 °F 27.5 °F 24.1 °F 76% 30.10 in 10.0 mi NNW 3.5 mph - N/A   Clear
2:53 AM 28.9 °F 23.9 °F 23.0 °F 78% 30.10 in 10.0 mi North 4.6 mph - N/A   Clear
3:53 AM 27.0 °F 21.6 °F 21.0 °F 78% 30.09 in 10.0 mi North 4.6 mph - N/A   Clear
4:53 AM 27.0 °F 20.5 °F 21.0 °F 78% 30.09 in 10.0 mi NE 5.8 mph - N/A   Clear
5:53 AM 25.0 °F 17.1 °F 21.9 °F 88% 30.07 in 10.0 mi NNE 6.9 mph - N/A   Clear
6:53 AM 24.1 °F 15.2 °F 21.0 °F 88% 30.07 in 10.0 mi NE 8.1 mph - N/A   Clear
7:53 AM 25.0 °F 20.7 °F 21.0 °F 85% 30.07 in 10.0 mi North 3.5 mph - N/A   Clear
8:53 AM 26.1 °F 21.9 °F 23.0 °F 88% 30.06 in 10.0 mi NE 3.5 mph - N/A   Clear
9:53 AM 27.0 °F 19.5 °F 21.9 °F 81% 30.06 in 10.0 mi ENE 6.9 mph - N/A   Clear
10:53 AM 33.1 °F 26.1 °F 27.0 °F 78% 30.05 in 10.0 mi NNE 8.1 mph - N/A   Clear
11:53 AM 36.0 °F 27.5 °F 28.0 °F 73% 30.04 in 10.0 mi NE 12.7 mph - N/A   Clear
12:53 PM 37.9 °F 30.0 °F 27.0 °F 65% 30.03 in 10.0 mi NNE 12.7 mph - N/A   Clear
1:53 PM 41.0 °F 34.3 °F 25.0 °F 53% 30.02 in 10.0 mi NE 11.5 mph - N/A   Clear
2:53 PM 42.1 °F 35.7 °F 25.0 °F 51% 30.00 in 10.0 mi North 11.5 mph - N/A   Clear
3:53 PM 43.0 °F 37.2 °F 24.1 °F 47% 29.99 in 10.0 mi NNE 10.4 mph - N/A   Clear
4:53 PM 43.0 °F 37.2 °F 26.1 °F 51% 29.97 in 10.0 mi NNE 10.4 mph - N/A   Clear
5:53 PM 39.9 °F 34.5 °F 26.1 °F 58% 29.96 in 10.0 mi NNE 8.1 mph - N/A   Clear
6:53 PM 35.1 °F 28.6 °F 24.1 °F 64% 29.95 in 10.0 mi NE 8.1 mph - N/A   Clear
7:53 PM 32.0 °F 24.2 °F 24.1 °F 73% 29.94 in 10.0 mi NE 9.2 mph - N/A   Clear
8:53 PM 32.0 °F 24.2 °F 24.1 °F 73% 29.94 in 10.0 mi NNE 9.2 mph - N/A   Clear
9:53 PM 30.9 °F 23.5 °F 23.0 °F 72% 29.94 in 10.0 mi NNE 8.1 mph - N/A   Clear
10:53 PM 28.0 °F 19.3 °F 21.9 °F 78% 29.93 in 10.0 mi NNE 9.2 mph - N/A   Clear
11:53 PM 28.4 °F 20.4 °F 21.2 °F 74% 29.91 in 10.0 mi NNE 8.1 mph - N/A   Clear